When you browse on this site, cookies collect data to enhance your experience and personalize the content and advertising you see.
Visit our Privacy Policy to learn more. By continuing to use the site, you agree to this use of cookies and data.
EN

Hourly Weather Kobylin

Today, 12 August, Wednesday

Time Temperature Precipitation Wind Pressure Humidity
00:00 +14°C° 0 mm 2 mps 751 mmHg 83%
01:00 +13°C° 0 mm 2 mps 751 mmHg 84%
02:00 +13°C° 0 mm 2 mps 751 mmHg 85%
03:00 +13°C° 0 mm 2 mps 751 mmHg 85%
04:00 +12°C° 0 mm 2 mps 751 mmHg 85%
05:00 +14°C° 0 mm 2 mps 751 mmHg 80%
06:00 +15°C° 0 mm 2 mps 752 mmHg 75%
07:00 +16°C° 0 mm 2 mps 752 mmHg 71%
08:00 +18°C° 0 mm 2 mps 752 mmHg 66%
09:00 +19°C° 0 mm 2 mps 752 mmHg 61%
10:00 +21°C° 0 mm 3 mps 752 mmHg 56%
11:00 +21°C° 0 mm 2 mps 752 mmHg 54%
12:00 +23°C° 0 mm 2 mps 752 mmHg 51%
13:00 +23°C° 0 mm 2 mps 752 mmHg 49%
14:00 +23°C° 0 mm 2 mps 752 mmHg 50%
15:00 +23°C° 0 mm 2 mps 751 mmHg 51%
16:00 +23°C° 0 mm 2 mps 751 mmHg 52%
17:00 +20°C° 0 mm 2 mps 751 mmHg 59%
18:00 +18°C° 0 mm 2 mps 751 mmHg 66%
19:00 +17°C° 0 mm 2 mps 751 mmHg 73%
20:00 +16°C° 0 mm 2 mps 751 mmHg 75%
21:00 +15°C° 0 mm 2 mps 751 mmHg 76%
22:00 +14°C° 0 mm 2 mps 751 mmHg 78%
23:00 +13°C° 0 mm 2 mps 751 mmHg 81%

Tomorrow, 13 August, Thursday

Time Temperature Precipitation Wind Pressure Humidity
00:00 +13°C° 0 mm 2 mps 751 mmHg 84%
01:00 +12°C° 0 mm 1 mps 751 mmHg 86%
02:00 +12°C° 0 mm 1 mps 751 mmHg 88%
03:00 +12°C° 0 mm 1 mps 750 mmHg 89%
04:00 +11°C° 0 mm 1 mps 750 mmHg 90%
05:00 +13°C° 0 mm 1 mps 750 mmHg 85%
06:00 +15°C° 0 mm 1 mps 750 mmHg 79%
07:00 +16°C° 0 mm 1 mps 750 mmHg 74%
08:00 +19°C° 0 mm 1 mps 750 mmHg 68%
09:00 +21°C° 0 mm 1 mps 750 mmHg 62%
10:00 +22°C° 0 mm 1 mps 750 mmHg 56%
11:00 +23°C° 0 mm 1 mps 750 mmHg 52%
12:00 +24°C° 0 mm 1 mps 749 mmHg 49%
13:00 +25°C° 0 mm 1 mps 749 mmHg 45%
14:00 +24°C° 0 mm 1 mps 749 mmHg 46%
15:00 +24°C° 0 mm 1 mps 749 mmHg 47%
16:00 +24°C° 0 mm 1 mps 748 mmHg 47%
17:00 +22°C° 0 mm 1 mps 748 mmHg 54%
18:00 +19°C° 0 mm 2 mps 748 mmHg 61%
19:00 +18°C° 0 mm 2 mps 748 mmHg 67%
20:00 +17°C° 0 mm 2 mps 748 mmHg 69%
21:00 +16°C° 0 mm 2 mps 748 mmHg 71%
22:00 +15°C° 0 mm 2 mps 749 mmHg 73%
23:00 +15°C° 0 mm 2 mps 749 mmHg 76%

Day after tomorrow, 14 August, Friday

Time Temperature Precipitation Wind Pressure Humidity
00:00 +14°C° 0 mm 2 mps 749 mmHg 79%
01:00 +14°C° 0 mm 2 mps 749 mmHg 82%
02:00 +13°C° 0 mm 2 mps 749 mmHg 83%
03:00 +13°C° 0 mm 1 mps 749 mmHg 85%
04:00 +13°C° 0 mm 1 mps 748 mmHg 87%
05:00 +14°C° 0 mm 2 mps 748 mmHg 83%
06:00 +16°C° 0 mm 2 mps 749 mmHg 78%
07:00 +18°C° 0 mm 2 mps 749 mmHg 74%
08:00 +19°C° 0 mm 2 mps 749 mmHg 68%
09:00 +21°C° 0 mm 2 mps 749 mmHg 63%
10:00 +23°C° 0 mm 2 mps 749 mmHg 57%
11:00 +24°C° 0 mm 2 mps 749 mmHg 54%
12:00 +25°C° 0 mm 2 mps 749 mmHg 50%
13:00 +26°C° 0 mm 2 mps 748 mmHg 46%
14:00 +26°C° 0 mm 1 mps 748 mmHg 47%
15:00 +25°C° 0 mm 1 mps 748 mmHg 48%
16:00 +25°C° 0 mm 1 mps 748 mmHg 48%
17:00 +24°C° 0 mm 1 mps 748 mmHg 54%
18:00 +22°C° 0 mm 1 mps 748 mmHg 60%
19:00 +20°C° 0 mm 2 mps 748 mmHg 65%
20:00 +19°C° 0 mm 2 mps 748 mmHg 67%
21:00 +19°C° 0 mm 2 mps 748 mmHg 69%
22:00 +18°C° 0 mm 2 mps 749 mmHg 71%
23:00 +17°C° 0 mm 2 mps 749 mmHg 72%

15 August, Saturday

Time Temperature Precipitation Wind Pressure Humidity
00:00 +16°C° 0 mm 2 mps 749 mmHg 74%
01:00 +16°C° 0 mm 2 mps 749 mmHg 76%
02:00 +15°C° 0 mm 2 mps 749 mmHg 77%
03:00 +15°C° 0 mm 2 mps 749 mmHg 79%
04:00 +15°C° 0 mm 2 mps 749 mmHg 81%
05:00 +16°C° 0 mm 1 mps 749 mmHg 77%
06:00 +19°C° 0 mm 1 mps 749 mmHg 74%
07:00 +20°C° 0 mm 1 mps 749 mmHg 71%
08:00 +20°C° 0 mm 2 mps 750 mmHg 65%
09:00 +23°C° 0 mm 2 mps 750 mmHg 59%
10:00 +24°C° 0 mm 2 mps 750 mmHg 53%
11:00 +25°C° 0 mm 2 mps 750 mmHg 51%
12:00 +25°C° 0 mm 2 mps 750 mmHg 49%
13:00 +26°C° 0 mm 2 mps 749 mmHg 47%
14:00 +25°C° 0 mm 2 mps 749 mmHg 48%
15:00 +25°C° 0 mm 1 mps 749 mmHg 49%
16:00 +25°C° 0 mm 1 mps 749 mmHg 50%
17:00 +24°C° 0 mm 1 mps 749 mmHg 54%
18:00 +22°C° 0 mm 1 mps 749 mmHg 59%
19:00 +21°C° 0 mm 1 mps 749 mmHg 63%
20:00 +20°C° 0 mm 1 mps 749 mmHg 64%
21:00 +19°C° 0 mm 1 mps 750 mmHg 65%
22:00 +19°C° 0 mm 1 mps 750 mmHg 66%
23:00 +18°C° 0 mm 1 mps 750 mmHg 68%

16 August, Sunday

Time Temperature Precipitation Wind Pressure Humidity
00:00 +18°C° 0 mm 1 mps 750 mmHg 70%
01:00 +16°C° 0 mm 1 mps 750 mmHg 72%
02:00 +16°C° 0 mm 1 mps 750 mmHg 75%
03:00 +15°C° 0 mm 1 mps 750 mmHg 77%
04:00 +15°C° 0 mm 1 mps 750 mmHg 79%
05:00 +16°C° 0 mm 1 mps 750 mmHg 75%
06:00 +19°C° 0 mm 1 mps 750 mmHg 71%
07:00 +21°C° 0 mm 1 mps 750 mmHg 66%
08:00 +22°C° 0 mm 1 mps 750 mmHg 61%
09:00 +24°C° 0 mm 1 mps 751 mmHg 56%
10:00 +25°C° 0 mm 2 mps 751 mmHg 52%
11:00 +26°C° 0 mm 2 mps 750 mmHg 50%
12:00 +26°C° 0 mm 2 mps 750 mmHg 48%
13:00 +27°C° 0 mm 2 mps 750 mmHg 46%
14:00 +27°C° 0 mm 2 mps 750 mmHg 47%
15:00 +27°C° 0 mm 2 mps 749 mmHg 48%
16:00 +27°C° 0 mm 2 mps 749 mmHg 49%
17:00 +25°C° 0 mm 2 mps 749 mmHg 55%
18:00 +23°C° 0 mm 2 mps 749 mmHg 61%
19:00 +20°C° 0 mm 2 mps 749 mmHg 67%
20:00 +19°C° 0 mm 2 mps 749 mmHg 69%
21:00 +19°C° 0 mm 2 mps 749 mmHg 71%
22:00 +18°C° 0 mm 2 mps 749 mmHg 73%
23:00 +17°C° 0 mm 2 mps 749 mmHg 75%

17 August, Monday

Time Temperature Precipitation Wind Pressure Humidity
00:00 +17°C° 0 mm 2 mps 749 mmHg 77%
01:00 +16°C° 0 mm 1 mps 749 mmHg 79%
02:00 +16°C° 0 mm 2 mps 749 mmHg 80%
03:00 +16°C° 0 mm 2 mps 749 mmHg 81%
04:00 +15°C° 0 mm 2 mps 749 mmHg 83%
05:00 +17°C° 0 mm 2 mps 749 mmHg 78%
06:00 +18°C° 0 mm 3 mps 749 mmHg 74%
07:00 +20°C° 0 mm 3 mps 749 mmHg 69%
08:00 +21°C° 0 mm 4 mps 749 mmHg 63%
09:00 +23°C° 0 mm 4 mps 749 mmHg 57%
10:00 +25°C° 0 mm 5 mps 749 mmHg 52%
11:00 +26°C° 0 mm 5 mps 749 mmHg 49%
12:00 +27°C° 0 mm 5 mps 749 mmHg 47%
13:00 +27°C° 0 mm 5 mps 749 mmHg 45%
14:00 +27°C° 0 mm 5 mps 748 mmHg 46%
15:00 +27°C° 0 mm 4 mps 748 mmHg 47%
16:00 +27°C° 0 mm 4 mps 748 mmHg 48%
17:00 +25°C° 0 mm 3 mps 747 mmHg 53%
18:00 +22°C° 0 mm 3 mps 747 mmHg 58%
19:00 +20°C° 0 mm 3 mps 747 mmHg 63%
20:00 +19°C° 0 mm 3 mps 747 mmHg 66%
21:00 +19°C° 0 mm 3 mps 747 mmHg 68%
22:00 +18°C° 0 mm 3 mps 747 mmHg 70%
23:00 +17°C° 0 mm 3 mps 747 mmHg 73%
Show more